,Portable 2,Portable 2
,PM10_1HR,PM10_1HR
,,
Date,Value,Null Code
01-Apr-2017 00:00,9.4,
01-Apr-2017 01:00,8.2,
01-Apr-2017 02:00,8.5,
01-Apr-2017 03:00,8.3,
01-Apr-2017 04:00,9.4,
01-Apr-2017 05:00,9.9,
01-Apr-2017 06:00,9,
01-Apr-2017 07:00,8.5,
01-Apr-2017 08:00,7.4,
01-Apr-2017 09:00,5.1,
01-Apr-2017 10:00,5.9,
01-Apr-2017 11:00,4.9,
01-Apr-2017 12:00,6.4,
01-Apr-2017 13:00,6.2,
01-Apr-2017 14:00,3.9,
01-Apr-2017 15:00,6.3,
01-Apr-2017 16:00,11.4,
01-Apr-2017 17:00,11.6,
01-Apr-2017 18:00,12.7,
01-Apr-2017 19:00,14.9,
01-Apr-2017 20:00,12,
01-Apr-2017 21:00,6.2,
01-Apr-2017 22:00,7.7,
01-Apr-2017 23:00,7.9,
02-Apr-2017 00:00,7.4,
02-Apr-2017 01:00,7.8,
02-Apr-2017 02:00,7.6,
02-Apr-2017 03:00,8.4,
02-Apr-2017 04:00,8.9,
02-Apr-2017 05:00,6.2,
02-Apr-2017 06:00,9.5,
02-Apr-2017 07:00,8.2,
02-Apr-2017 08:00,3.2,
02-Apr-2017 09:00,5.6,
02-Apr-2017 10:00,5.3,
02-Apr-2017 11:00,8.2,
02-Apr-2017 12:00,6.1,
02-Apr-2017 13:00,5.4,
02-Apr-2017 14:00,5.5,
02-Apr-2017 15:00,12.9,
02-Apr-2017 16:00,18.8,
02-Apr-2017 17:00,18.5,
02-Apr-2017 18:00,19,
02-Apr-2017 19:00,19.3,
02-Apr-2017 20:00,12.6,
02-Apr-2017 21:00,9.1,
02-Apr-2017 22:00,-0.3,
02-Apr-2017 23:00,7.4,
03-Apr-2017 00:00,7.5,
03-Apr-2017 01:00,7.2,
03-Apr-2017 02:00,1.6,
03-Apr-2017 03:00,5.9,
03-Apr-2017 04:00,5.5,
03-Apr-2017 05:00,8.3,
03-Apr-2017 06:00,12,
03-Apr-2017 07:00,33.8,
03-Apr-2017 08:00,144,
03-Apr-2017 09:00,113.1,
03-Apr-2017 10:00,36.5,
03-Apr-2017 11:00,16.7,
03-Apr-2017 12:00,29.4,
03-Apr-2017 13:00,42,
03-Apr-2017 14:00,30.9,
03-Apr-2017 15:00,11.1,
03-Apr-2017 16:00,10.2,
03-Apr-2017 17:00,11.5,
03-Apr-2017 18:00,16.3,
03-Apr-2017 19:00,13.6,
03-Apr-2017 20:00,10.3,
03-Apr-2017 21:00,11.8,
03-Apr-2017 22:00,12.4,
03-Apr-2017 23:00,10.7,
04-Apr-2017 00:00,8.6,
04-Apr-2017 01:00,8.1,
04-Apr-2017 02:00,9.6,
04-Apr-2017 03:00,7.3,
04-Apr-2017 04:00,14.8,
04-Apr-2017 05:00,10.1,
04-Apr-2017 06:00,10,
04-Apr-2017 07:00,6,
04-Apr-2017 08:00,6,
04-Apr-2017 09:00,5.4,
04-Apr-2017 10:00,6.4,
04-Apr-2017 11:00,6.2,
04-Apr-2017 12:00,5.8,
04-Apr-2017 13:00,7.4,
04-Apr-2017 14:00,9.4,
04-Apr-2017 15:00,18.7,
04-Apr-2017 16:00,16,
04-Apr-2017 17:00,,BA
04-Apr-2017 18:00,13.5,
04-Apr-2017 19:00,5.2,
04-Apr-2017 20:00,11,
04-Apr-2017 21:00,14.8,
04-Apr-2017 22:00,15.2,
04-Apr-2017 23:00,11.1,
05-Apr-2017 00:00,22.6,
05-Apr-2017 01:00,14,
05-Apr-2017 02:00,12.3,
05-Apr-2017 03:00,8,
05-Apr-2017 04:00,11,
05-Apr-2017 05:00,11.2,
05-Apr-2017 06:00,14.4,
05-Apr-2017 07:00,12,
05-Apr-2017 08:00,7.9,
05-Apr-2017 09:00,11.4,
05-Apr-2017 10:00,15.8,
05-Apr-2017 11:00,19.7,
05-Apr-2017 12:00,32.8,
05-Apr-2017 13:00,35.4,
05-Apr-2017 14:00,34.7,
05-Apr-2017 15:00,34.4,
05-Apr-2017 16:00,32.5,
05-Apr-2017 17:00,27.9,
05-Apr-2017 18:00,29.2,
05-Apr-2017 19:00,41.1,
05-Apr-2017 20:00,26.2,
05-Apr-2017 21:00,26.2,
05-Apr-2017 22:00,41.1,
05-Apr-2017 23:00,13.1,
06-Apr-2017 00:00,12.6,
06-Apr-2017 01:00,12.6,
06-Apr-2017 02:00,13.3,
06-Apr-2017 03:00,14.2,
06-Apr-2017 04:00,14.9,
06-Apr-2017 05:00,17.3,
06-Apr-2017 06:00,21.4,
06-Apr-2017 07:00,20.2,
06-Apr-2017 08:00,21.6,
06-Apr-2017 09:00,20.9,
06-Apr-2017 10:00,17,
06-Apr-2017 11:00,11.2,
06-Apr-2017 12:00,8.7,
06-Apr-2017 13:00,16.2,
06-Apr-2017 14:00,10.8,
06-Apr-2017 15:00,,AX
06-Apr-2017 16:00,44.2,
06-Apr-2017 17:00,17.1,
06-Apr-2017 18:00,14,
06-Apr-2017 19:00,8.8,
06-Apr-2017 20:00,20.5,
06-Apr-2017 21:00,12.8,
06-Apr-2017 22:00,15,
06-Apr-2017 23:00,17.6,
07-Apr-2017 00:00,9,
07-Apr-2017 01:00,20.9,
07-Apr-2017 02:00,29.5,
07-Apr-2017 03:00,12.9,
07-Apr-2017 04:00,12.9,
07-Apr-2017 05:00,8,
07-Apr-2017 06:00,7,
07-Apr-2017 07:00,5,
07-Apr-2017 08:00,8.5,
07-Apr-2017 09:00,10.9,
07-Apr-2017 10:00,9.5,
07-Apr-2017 11:00,12.4,
07-Apr-2017 12:00,9.7,
07-Apr-2017 13:00,6.7,
07-Apr-2017 14:00,7.5,
07-Apr-2017 15:00,4.3,
07-Apr-2017 16:00,3.3,
07-Apr-2017 17:00,5.9,
07-Apr-2017 18:00,3.4,
07-Apr-2017 19:00,7,
07-Apr-2017 20:00,7.3,
07-Apr-2017 21:00,1.1,
07-Apr-2017 22:00,10.3,
07-Apr-2017 23:00,1.6,
08-Apr-2017 00:00,1.8,
08-Apr-2017 01:00,2.6,
08-Apr-2017 02:00,3.6,
08-Apr-2017 03:00,4.6,
08-Apr-2017 04:00,4.3,
08-Apr-2017 05:00,7.6,
08-Apr-2017 06:00,6.3,
08-Apr-2017 07:00,2.7,
08-Apr-2017 08:00,6.3,
08-Apr-2017 09:00,5.1,
08-Apr-2017 10:00,3.3,
08-Apr-2017 11:00,7.4,
08-Apr-2017 12:00,9.7,
08-Apr-2017 13:00,8.3,
08-Apr-2017 14:00,8.9,
08-Apr-2017 15:00,5.1,
08-Apr-2017 16:00,7.1,
08-Apr-2017 17:00,11.3,
08-Apr-2017 18:00,10.3,
08-Apr-2017 19:00,8.9,
08-Apr-2017 20:00,5.6,
08-Apr-2017 21:00,5.5,
08-Apr-2017 22:00,5.7,
08-Apr-2017 23:00,4.4,
09-Apr-2017 00:00,6.6,
09-Apr-2017 01:00,4.4,
09-Apr-2017 02:00,4.9,
09-Apr-2017 03:00,4.7,
09-Apr-2017 04:00,5,
09-Apr-2017 05:00,6.8,
09-Apr-2017 06:00,5.7,
09-Apr-2017 07:00,4.1,
09-Apr-2017 08:00,4,
09-Apr-2017 09:00,4.3,
09-Apr-2017 10:00,2.9,
09-Apr-2017 11:00,2.7,
09-Apr-2017 12:00,3.9,
09-Apr-2017 13:00,3.4,
09-Apr-2017 14:00,4.4,
09-Apr-2017 15:00,6.6,
09-Apr-2017 16:00,6.3,
09-Apr-2017 17:00,10,
09-Apr-2017 18:00,13.7,
09-Apr-2017 19:00,10.2,
09-Apr-2017 20:00,9.4,
09-Apr-2017 21:00,8.6,
09-Apr-2017 22:00,10.9,
09-Apr-2017 23:00,9.5,
10-Apr-2017 00:00,8.7,
10-Apr-2017 01:00,7.6,
10-Apr-2017 02:00,7.8,
10-Apr-2017 03:00,8.7,
10-Apr-2017 04:00,8.7,
10-Apr-2017 05:00,8.8,
10-Apr-2017 06:00,10.7,
10-Apr-2017 07:00,12.2,
10-Apr-2017 08:00,8.5,
10-Apr-2017 09:00,13.6,
10-Apr-2017 10:00,7.4,
10-Apr-2017 11:00,11.3,
10-Apr-2017 12:00,11.3,
10-Apr-2017 13:00,10.1,
10-Apr-2017 14:00,9.9,
10-Apr-2017 15:00,11.3,
10-Apr-2017 16:00,11.8,
10-Apr-2017 17:00,13.5,
10-Apr-2017 18:00,15.3,
10-Apr-2017 19:00,18.5,
10-Apr-2017 20:00,16.1,
10-Apr-2017 21:00,14.6,
10-Apr-2017 22:00,13.1,
10-Apr-2017 23:00,12.6,
11-Apr-2017 00:00,11.3,
11-Apr-2017 01:00,11.2,
11-Apr-2017 02:00,11.7,
11-Apr-2017 03:00,11.3,
11-Apr-2017 04:00,10.7,
11-Apr-2017 05:00,11.7,
11-Apr-2017 06:00,11.9,
11-Apr-2017 07:00,11.3,
11-Apr-2017 08:00,8.4,
11-Apr-2017 09:00,13.1,
11-Apr-2017 10:00,14.5,
11-Apr-2017 11:00,13.1,
11-Apr-2017 12:00,14.6,
11-Apr-2017 13:00,13.2,
11-Apr-2017 14:00,12.2,
11-Apr-2017 15:00,11,
11-Apr-2017 16:00,11.5,
11-Apr-2017 17:00,11.8,
11-Apr-2017 18:00,9.3,
11-Apr-2017 19:00,9.4,
11-Apr-2017 20:00,8.4,
11-Apr-2017 21:00,7.9,
11-Apr-2017 22:00,9.2,
11-Apr-2017 23:00,8,
12-Apr-2017 00:00,5.7,
12-Apr-2017 01:00,5.8,
12-Apr-2017 02:00,6,
12-Apr-2017 03:00,6,
12-Apr-2017 04:00,5.7,
12-Apr-2017 05:00,6.6,
12-Apr-2017 06:00,9.8,
12-Apr-2017 07:00,8.1,
12-Apr-2017 08:00,4.7,
12-Apr-2017 09:00,7.4,
12-Apr-2017 10:00,11.3,
12-Apr-2017 11:00,13.7,
12-Apr-2017 12:00,31.1,
12-Apr-2017 13:00,28.7,
12-Apr-2017 14:00,23.3,
12-Apr-2017 15:00,21.8,
12-Apr-2017 16:00,18.3,
12-Apr-2017 17:00,12.6,
12-Apr-2017 18:00,14.3,
12-Apr-2017 19:00,17.6,
12-Apr-2017 20:00,15.1,
12-Apr-2017 21:00,19.1,
12-Apr-2017 22:00,18,
12-Apr-2017 23:00,11.4,
13-Apr-2017 00:00,7.6,
13-Apr-2017 01:00,9.4,
13-Apr-2017 02:00,8.9,
13-Apr-2017 03:00,10.5,
13-Apr-2017 04:00,13.6,
13-Apr-2017 05:00,14.7,
13-Apr-2017 06:00,13.1,
13-Apr-2017 07:00,11.7,
13-Apr-2017 08:00,10.9,
13-Apr-2017 09:00,5.5,
13-Apr-2017 10:00,9.6,
13-Apr-2017 11:00,11.2,
13-Apr-2017 12:00,16.9,
13-Apr-2017 13:00,6.9,
13-Apr-2017 14:00,12.5,
13-Apr-2017 15:00,11.5,
13-Apr-2017 16:00,71.6,
13-Apr-2017 17:00,57,
13-Apr-2017 18:00,12.6,
13-Apr-2017 19:00,11.9,
13-Apr-2017 20:00,11.3,
13-Apr-2017 21:00,8.1,
13-Apr-2017 22:00,7.2,
13-Apr-2017 23:00,5.6,
14-Apr-2017 00:00,11.1,
14-Apr-2017 01:00,5.8,
14-Apr-2017 02:00,6.4,
14-Apr-2017 03:00,3.7,
14-Apr-2017 04:00,5.2,
14-Apr-2017 05:00,5.9,
14-Apr-2017 06:00,8.2,
14-Apr-2017 07:00,7.4,
14-Apr-2017 08:00,3.1,
14-Apr-2017 09:00,3.5,
14-Apr-2017 10:00,5.4,
14-Apr-2017 11:00,6,
14-Apr-2017 12:00,4.9,
14-Apr-2017 13:00,5.5,
14-Apr-2017 14:00,6.5,
14-Apr-2017 15:00,9.7,
14-Apr-2017 16:00,9.4,
14-Apr-2017 17:00,12.8,
14-Apr-2017 18:00,48.7,
14-Apr-2017 19:00,14.4,
14-Apr-2017 20:00,14.2,
14-Apr-2017 21:00,9.2,
14-Apr-2017 22:00,10.1,
14-Apr-2017 23:00,13.3,
15-Apr-2017 00:00,7.5,
15-Apr-2017 01:00,7.1,
15-Apr-2017 02:00,6.3,
15-Apr-2017 03:00,7.5,
15-Apr-2017 04:00,7.2,
15-Apr-2017 05:00,8.1,
15-Apr-2017 06:00,7.7,
15-Apr-2017 07:00,6.7,
15-Apr-2017 08:00,5.7,
15-Apr-2017 09:00,6.3,
15-Apr-2017 10:00,10.1,
15-Apr-2017 11:00,12.6,
15-Apr-2017 12:00,15.3,
15-Apr-2017 13:00,19,
15-Apr-2017 14:00,21.1,
15-Apr-2017 15:00,17.5,
15-Apr-2017 16:00,14.9,
15-Apr-2017 17:00,15.1,
15-Apr-2017 18:00,21.5,
15-Apr-2017 19:00,35.9,
15-Apr-2017 20:00,17.4,
15-Apr-2017 21:00,15.5,
15-Apr-2017 22:00,15.3,
15-Apr-2017 23:00,15.5,
16-Apr-2017 00:00,15.2,
16-Apr-2017 01:00,15.6,
16-Apr-2017 02:00,13.2,
16-Apr-2017 03:00,13.8,
16-Apr-2017 04:00,11.4,
16-Apr-2017 05:00,12.5,
16-Apr-2017 06:00,14.3,
16-Apr-2017 07:00,10.6,
16-Apr-2017 08:00,8.6,
16-Apr-2017 09:00,9.5,
16-Apr-2017 10:00,17.1,
16-Apr-2017 11:00,24.9,
16-Apr-2017 12:00,18,
16-Apr-2017 13:00,14.4,
16-Apr-2017 14:00,17,
16-Apr-2017 15:00,-12.9,
16-Apr-2017 16:00,13.9,
16-Apr-2017 17:00,10.7,
16-Apr-2017 18:00,9.1,
16-Apr-2017 19:00,14.8,
16-Apr-2017 20:00,8.1,
16-Apr-2017 21:00,7,
16-Apr-2017 22:00,5.1,
16-Apr-2017 23:00,7.2,
17-Apr-2017 00:00,6.1,
17-Apr-2017 01:00,5.4,
17-Apr-2017 02:00,5.7,
17-Apr-2017 03:00,5.9,
17-Apr-2017 04:00,6.4,
17-Apr-2017 05:00,7.1,
17-Apr-2017 06:00,11.2,
17-Apr-2017 07:00,6.4,
17-Apr-2017 08:00,5.6,
17-Apr-2017 09:00,8,
17-Apr-2017 10:00,8.9,
17-Apr-2017 11:00,8.2,
17-Apr-2017 12:00,7.5,
17-Apr-2017 13:00,9.1,
17-Apr-2017 14:00,8.7,
17-Apr-2017 15:00,10.9,
17-Apr-2017 16:00,7.3,
17-Apr-2017 17:00,10.2,
17-Apr-2017 18:00,22.8,
17-Apr-2017 19:00,7.6,
17-Apr-2017 20:00,8.6,
17-Apr-2017 21:00,8.2,
17-Apr-2017 22:00,6.8,
17-Apr-2017 23:00,7.1,
18-Apr-2017 00:00,6.1,
18-Apr-2017 01:00,5.2,
18-Apr-2017 02:00,6.1,
18-Apr-2017 03:00,6.1,
18-Apr-2017 04:00,6.5,
18-Apr-2017 05:00,11.4,
18-Apr-2017 06:00,7.2,
18-Apr-2017 07:00,3.8,
18-Apr-2017 08:00,7.4,
18-Apr-2017 09:00,7.7,
18-Apr-2017 10:00,3.8,
18-Apr-2017 11:00,4.6,
18-Apr-2017 12:00,11.2,
18-Apr-2017 13:00,6.7,
18-Apr-2017 14:00,12.4,
18-Apr-2017 15:00,15.7,
18-Apr-2017 16:00,9,
18-Apr-2017 17:00,12,
18-Apr-2017 18:00,4,
18-Apr-2017 19:00,7,
18-Apr-2017 20:00,9.5,
18-Apr-2017 21:00,9.8,
18-Apr-2017 22:00,8.8,
18-Apr-2017 23:00,10.1,
19-Apr-2017 00:00,7,
19-Apr-2017 01:00,8,
19-Apr-2017 02:00,7.7,
19-Apr-2017 03:00,7.4,
19-Apr-2017 04:00,8.4,
19-Apr-2017 05:00,9.7,
19-Apr-2017 06:00,11.3,
19-Apr-2017 07:00,9.2,
19-Apr-2017 08:00,8.5,
19-Apr-2017 09:00,7.8,
19-Apr-2017 10:00,8.7,
19-Apr-2017 11:00,10.3,
19-Apr-2017 12:00,8.6,
19-Apr-2017 13:00,9.3,
19-Apr-2017 14:00,10.9,
19-Apr-2017 15:00,,AX
19-Apr-2017 16:00,9.3,
19-Apr-2017 17:00,23.4,
19-Apr-2017 18:00,22.5,
19-Apr-2017 19:00,19.6,
19-Apr-2017 20:00,18.3,
19-Apr-2017 21:00,13.3,
19-Apr-2017 22:00,14.5,
19-Apr-2017 23:00,11.9,
20-Apr-2017 00:00,13.1,
20-Apr-2017 01:00,13.4,
20-Apr-2017 02:00,11,
20-Apr-2017 03:00,12.8,
20-Apr-2017 04:00,10.3,
20-Apr-2017 05:00,12.7,
20-Apr-2017 06:00,11.7,
20-Apr-2017 07:00,12.5,
20-Apr-2017 08:00,11.4,
20-Apr-2017 09:00,10.3,
20-Apr-2017 10:00,6,
20-Apr-2017 11:00,5,
20-Apr-2017 12:00,7.2,
20-Apr-2017 13:00,7.2,
20-Apr-2017 14:00,10.8,
20-Apr-2017 15:00,5.5,
20-Apr-2017 16:00,6.4,
20-Apr-2017 17:00,9.8,
20-Apr-2017 18:00,11.7,
20-Apr-2017 19:00,18.4,
20-Apr-2017 20:00,16.8,
20-Apr-2017 21:00,17.7,
20-Apr-2017 22:00,22.6,
20-Apr-2017 23:00,18.3,
21-Apr-2017 00:00,10.8,
21-Apr-2017 01:00,8.7,
21-Apr-2017 02:00,8.5,
21-Apr-2017 03:00,8.4,
21-Apr-2017 04:00,9.2,
21-Apr-2017 05:00,13.5,
21-Apr-2017 06:00,13.5,
21-Apr-2017 07:00,20.4,
21-Apr-2017 08:00,13.4,
21-Apr-2017 09:00,9.4,
21-Apr-2017 10:00,6,
21-Apr-2017 11:00,5.8,
21-Apr-2017 12:00,9.2,
21-Apr-2017 13:00,9.3,
21-Apr-2017 14:00,9.5,
21-Apr-2017 15:00,11.3,
21-Apr-2017 16:00,13,
21-Apr-2017 17:00,11.3,
21-Apr-2017 18:00,19.6,
21-Apr-2017 19:00,17.8,
21-Apr-2017 20:00,20,
21-Apr-2017 21:00,17.4,
21-Apr-2017 22:00,12.6,
21-Apr-2017 23:00,13.2,
22-Apr-2017 00:00,10.4,
22-Apr-2017 01:00,9.1,
22-Apr-2017 02:00,9.5,
22-Apr-2017 03:00,8.7,
22-Apr-2017 04:00,8.5,
22-Apr-2017 05:00,,AV
22-Apr-2017 06:00,13.1,
22-Apr-2017 07:00,9.8,
22-Apr-2017 08:00,9.2,
22-Apr-2017 09:00,11.4,
22-Apr-2017 10:00,16.7,
22-Apr-2017 11:00,28.9,
22-Apr-2017 12:00,27.6,
22-Apr-2017 13:00,30.6,
22-Apr-2017 14:00,30.6,
22-Apr-2017 15:00,18.1,
22-Apr-2017 16:00,27.2,
22-Apr-2017 17:00,14,
22-Apr-2017 18:00,16,
22-Apr-2017 19:00,19.7,
22-Apr-2017 20:00,15.6,
22-Apr-2017 21:00,21.8,
22-Apr-2017 22:00,10.2,
22-Apr-2017 23:00,11.4,
23-Apr-2017 00:00,12.4,
23-Apr-2017 01:00,10.6,
23-Apr-2017 02:00,16.9,
23-Apr-2017 03:00,9.5,
23-Apr-2017 04:00,12.9,
23-Apr-2017 05:00,17.6,
23-Apr-2017 06:00,13.5,
23-Apr-2017 07:00,6.6,
23-Apr-2017 08:00,6.7,
23-Apr-2017 09:00,10.6,
23-Apr-2017 10:00,16.6,
23-Apr-2017 11:00,9.7,
23-Apr-2017 12:00,15.9,
23-Apr-2017 13:00,21.2,
23-Apr-2017 14:00,10.1,
23-Apr-2017 15:00,10.7,
23-Apr-2017 16:00,14.6,
23-Apr-2017 17:00,19.7,
23-Apr-2017 18:00,16,
23-Apr-2017 19:00,14.1,
23-Apr-2017 20:00,12.4,
23-Apr-2017 21:00,12.9,
23-Apr-2017 22:00,12.8,
23-Apr-2017 23:00,13.9,
24-Apr-2017 00:00,11.2,
24-Apr-2017 01:00,12.9,
24-Apr-2017 02:00,9.3,
24-Apr-2017 03:00,8.6,
24-Apr-2017 04:00,8.4,
24-Apr-2017 05:00,8.6,
24-Apr-2017 06:00,12.2,
24-Apr-2017 07:00,16.3,
24-Apr-2017 08:00,20.8,
24-Apr-2017 09:00,29,
24-Apr-2017 10:00,43.1,
24-Apr-2017 11:00,42.1,
24-Apr-2017 12:00,94.3,
24-Apr-2017 13:00,41.6,
24-Apr-2017 14:00,34.8,
24-Apr-2017 15:00,95.5,
24-Apr-2017 16:00,23.6,
24-Apr-2017 17:00,11.4,
24-Apr-2017 18:00,13.2,
24-Apr-2017 19:00,15.6,
24-Apr-2017 20:00,13.5,
24-Apr-2017 21:00,9.6,
24-Apr-2017 22:00,11.2,
24-Apr-2017 23:00,8.1,
25-Apr-2017 00:00,11.7,
25-Apr-2017 01:00,11,
25-Apr-2017 02:00,12.5,
25-Apr-2017 03:00,11.7,
25-Apr-2017 04:00,10.9,
25-Apr-2017 05:00,18.4,
25-Apr-2017 06:00,20.9,
25-Apr-2017 07:00,24.6,
25-Apr-2017 08:00,15.6,
25-Apr-2017 09:00,24.2,
25-Apr-2017 10:00,23.5,
25-Apr-2017 11:00,21.5,
25-Apr-2017 12:00,15,
25-Apr-2017 13:00,15.1,
25-Apr-2017 14:00,11.7,
25-Apr-2017 15:00,14,
25-Apr-2017 16:00,14.9,
25-Apr-2017 17:00,15.1,
25-Apr-2017 18:00,14.9,
25-Apr-2017 19:00,14.9,
25-Apr-2017 20:00,11.2,
25-Apr-2017 21:00,11.2,
25-Apr-2017 22:00,10.2,
25-Apr-2017 23:00,8.2,
26-Apr-2017 00:00,8.3,
26-Apr-2017 01:00,6.7,
26-Apr-2017 02:00,5.2,
26-Apr-2017 03:00,8.1,
26-Apr-2017 04:00,8.4,
26-Apr-2017 05:00,11.1,
26-Apr-2017 06:00,9.1,
26-Apr-2017 07:00,8.4,
26-Apr-2017 08:00,7.6,
26-Apr-2017 09:00,10,
26-Apr-2017 10:00,8.8,
26-Apr-2017 11:00,8.6,
26-Apr-2017 12:00,10.3,
26-Apr-2017 13:00,25,
26-Apr-2017 14:00,21,
26-Apr-2017 15:00,21.3,
26-Apr-2017 16:00,12.9,
26-Apr-2017 17:00,5.9,
26-Apr-2017 18:00,9.2,
26-Apr-2017 19:00,17.6,
26-Apr-2017 20:00,17.7,
26-Apr-2017 21:00,14.9,
26-Apr-2017 22:00,10.5,
26-Apr-2017 23:00,13.5,
27-Apr-2017 00:00,9.8,
27-Apr-2017 01:00,9.6,
27-Apr-2017 02:00,11,
27-Apr-2017 03:00,8.2,
27-Apr-2017 04:00,9.2,
27-Apr-2017 05:00,10.5,
27-Apr-2017 06:00,11.3,
27-Apr-2017 07:00,25.9,
27-Apr-2017 08:00,11.6,
27-Apr-2017 09:00,27.8,
27-Apr-2017 10:00,77.4,
27-Apr-2017 11:00,74.1,
27-Apr-2017 12:00,76,
27-Apr-2017 13:00,90.4,
27-Apr-2017 14:00,31.5,
27-Apr-2017 15:00,21.4,
27-Apr-2017 16:00,24.1,
27-Apr-2017 17:00,18.8,
27-Apr-2017 18:00,21.7,
27-Apr-2017 19:00,23.1,
27-Apr-2017 20:00,27,
27-Apr-2017 21:00,17.7,
27-Apr-2017 22:00,15.4,
27-Apr-2017 23:00,18.2,
28-Apr-2017 00:00,16.1,
28-Apr-2017 01:00,12.7,
28-Apr-2017 02:00,16.2,
28-Apr-2017 03:00,13.6,
28-Apr-2017 04:00,12.2,
28-Apr-2017 05:00,11.1,
28-Apr-2017 06:00,16.9,
28-Apr-2017 07:00,12.9,
28-Apr-2017 08:00,17.1,
28-Apr-2017 09:00,24.4,
28-Apr-2017 10:00,20.2,
28-Apr-2017 11:00,33.6,
28-Apr-2017 12:00,48.8,
28-Apr-2017 13:00,69.6,
28-Apr-2017 14:00,244,
28-Apr-2017 15:00,222.6,
28-Apr-2017 16:00,67.1,
28-Apr-2017 17:00,29.8,
28-Apr-2017 18:00,20.3,
28-Apr-2017 19:00,21.7,
28-Apr-2017 20:00,18.4,
28-Apr-2017 21:00,14.7,
28-Apr-2017 22:00,13.1,
28-Apr-2017 23:00,13.5,
29-Apr-2017 00:00,11.1,
29-Apr-2017 01:00,6.7,
29-Apr-2017 02:00,6.4,
29-Apr-2017 03:00,8.7,
29-Apr-2017 04:00,9.6,
29-Apr-2017 05:00,10.1,
29-Apr-2017 06:00,9,
29-Apr-2017 07:00,5.4,
29-Apr-2017 08:00,4.1,
29-Apr-2017 09:00,4.7,
29-Apr-2017 10:00,3.8,
29-Apr-2017 11:00,4.8,
29-Apr-2017 12:00,3.8,
29-Apr-2017 13:00,3.9,
29-Apr-2017 14:00,4.2,
29-Apr-2017 15:00,4.1,
29-Apr-2017 16:00,10.5,
29-Apr-2017 17:00,12,
29-Apr-2017 18:00,75,
29-Apr-2017 19:00,20.3,
29-Apr-2017 20:00,30.3,
29-Apr-2017 21:00,26.9,
29-Apr-2017 22:00,26.7,
29-Apr-2017 23:00,16.2,
30-Apr-2017 00:00,18.6,
30-Apr-2017 01:00,16.7,
30-Apr-2017 02:00,11.6,
30-Apr-2017 03:00,12.9,
30-Apr-2017 04:00,9.1,
30-Apr-2017 05:00,11.2,
30-Apr-2017 06:00,11.4,
30-Apr-2017 07:00,7.4,
30-Apr-2017 08:00,3.4,
30-Apr-2017 09:00,7,
30-Apr-2017 10:00,6.9,
30-Apr-2017 11:00,5.5,
30-Apr-2017 12:00,9.8,
30-Apr-2017 13:00,13.9,
30-Apr-2017 14:00,11.6,
30-Apr-2017 15:00,12.5,
30-Apr-2017 16:00,13.2,
30-Apr-2017 17:00,20.1,
30-Apr-2017 18:00,26.8,
30-Apr-2017 19:00,39.3,
30-Apr-2017 20:00,20.3,
30-Apr-2017 21:00,15,
30-Apr-2017 22:00,15.3,
30-Apr-2017 23:00,13.3,
